User: anonymous   Login
Location: Aalen
(48.8330°N, 10.1000°E)
Time: 12:21:00
(UTC+02:00)
Language:

IRIDIUM 33 DEB - Orbit

View from above orbital plane
View from above orbital plane
View from above satellite
View from above satellite

Ground track
Ground track

The orbit data is extracted from the following two-line orbital elements,

1 33776U 97051P   22229.09308514  .00000457  00000-0  15481-3 0  9993
2 33776  86.4040 228.4457 0013702 204.2320 225.2128 14.34536965706717
Epoch (UTC): 17 August 2022 02:14:02
Eccentricity: 0.0013702
inclination: 86.4040°
perigee height: 767 km
apogee height: 786 km
right ascension of ascending node: 228.4457°
argument of perigee: 204.2320°
revolutions per day: 14.34536965
mean anomaly at epoch: 225.2128°
orbit number at epoch: 70671

The dashed part of the orbit path shows where the satellite is in the earth's shadow,  

DLR